Time,TemperatureF,DewpointF,PressureIn,WindDirection,WindDirectionDegrees,WindSpeedMPH,WindSpeedGustMPH,Humidity,HourlyPrecipIn,Conditions,Clouds,dailyrainin,SolarRadiationWatts/m^2,SoftwareType,DateUTC
2013-02-09 00:13:00,57.1,56.0,30.10,East,96,0.0,0.0,96,0.00,,,0.00,0,weatherlink.com 1.10,2013-02-09 05:13:00,
2013-02-09 00:27:00,57.0,56.0,30.10,East,96,0.0,0.0,96,0.00,,,0.00,0,weatherlink.com 1.10,2013-02-09 05:27:00,
2013-02-09 00:43:00,56.6,56.0,30.10,East,96,1.0,1.0,96,0.00,,,0.00,0,weatherlink.com 1.10,2013-02-09 05:43:00,
2013-02-09 00:58:00,57.8,57.0,30.10,NNE,18,3.0,5.0,97,0.00,,,0.00,0,weatherlink.com 1.10,2013-02-09 05:58:00,
2013-02-09 01:13:00,58.4,58.0,30.10,North,9,0.0,4.0,97,0.00,,,0.00,0,weatherlink.com 1.10,2013-02-09 06:13:00,
2013-02-09 01:28:00,58.4,58.0,30.10,North,9,0.0,2.0,97,0.00,,,0.00,0,weatherlink.com 1.10,2013-02-09 06:28:00,
2013-02-09 01:44:00,58.1,57.0,30.10,North,11,0.0,3.0,97,0.00,,,0.00,0,weatherlink.com 1.10,2013-02-09 06:44:00,
2013-02-09 01:58:00,57.8,57.0,30.10,North,11,0.0,1.0,96,0.00,,,0.00,0,weatherlink.com 1.10,2013-02-09 06:58:00,
2013-02-09 02:13:00,57.5,56.0,30.09,North,11,0.0,0.0,96,0.00,,,0.00,0,weatherlink.com 1.10,2013-02-09 07:13:00,
2013-02-09 02:28:00,56.9,56.0,30.09,North,11,0.0,0.0,96,0.00,,,0.00,0,weatherlink.com 1.10,2013-02-09 07:28:00,
2013-02-09 02:43:00,56.3,55.0,30.09,North,11,0.0,1.0,96,0.00,,,0.00,0,weatherlink.com 1.10,2013-02-09 07:43:00,
2013-02-09 02:58:00,55.8,55.0,30.09,North,11,0.0,1.0,96,0.00,,,0.00,0,weatherlink.com 1.10,2013-02-09 07:58:00,
2013-02-09 03:14:00,55.6,55.0,30.09,North,11,1.0,2.0,96,0.00,,,0.00,0,weatherlink.com 1.10,2013-02-09 08:14:00,
2013-02-09 03:29:00,55.8,55.0,30.09,North,5,2.0,3.0,97,0.00,,,0.00,0,weatherlink.com 1.10,2013-02-09 08:29:00,
2013-02-09 03:44:00,56.7,56.0,30.09,North,5,4.0,6.0,97,0.00,,,0.00,0,weatherlink.com 1.10,2013-02-09 08:44:00,
2013-02-09 04:00:00,56.9,56.0,30.10,North,5,4.0,6.0,97,0.00,,,0.00,0,weatherlink.com 1.10,2013-02-09 09:00:00,
2013-02-09 04:14:00,56.4,56.0,30.10,North,351,3.0,7.0,97,0.00,,,0.00,0,weatherlink.com 1.10,2013-02-09 09:14:00,
2013-02-09 04:29:00,55.9,55.0,30.10,North,5,2.0,5.0,96,0.00,,,0.00,0,weatherlink.com 1.10,2013-02-09 09:29:00,
2013-02-09 04:44:00,55.5,54.0,30.11,NNE,13,2.0,4.0,96,0.00,,,0.00,0,weatherlink.com 1.10,2013-02-09 09:44:00,
2013-02-09 04:59:00,55.1,54.0,30.11,North,5,1.0,4.0,96,0.00,,,0.00,0,weatherlink.com 1.10,2013-02-09 09:59:00,
2013-02-09 05:14:00,54.8,54.0,30.12,NNE,17,2.0,4.0,96,0.00,,,0.00,0,weatherlink.com 1.10,2013-02-09 10:14:00,
2013-02-09 05:29:00,54.6,54.0,30.12,North,360,4.0,4.0,96,0.00,,,0.00,0,weatherlink.com 1.10,2013-02-09 10:29:00,
2013-02-09 05:45:00,54.4,53.0,30.13,North,5,4.0,5.0,96,0.00,,,0.00,0,weatherlink.com 1.10,2013-02-09 10:45:00,
2013-02-09 06:00:00,54.3,53.0,30.13,North,5,3.0,4.0,96,0.00,,,0.00,0,weatherlink.com 1.10,2013-02-09 11:00:00,
2013-02-09 06:15:00,54.1,53.0,30.14,North,11,2.0,4.0,96,0.00,,,0.00,0,weatherlink.com 1.10,2013-02-09 11:15:00,
2013-02-09 06:30:00,53.8,53.0,30.15,North,5,2.0,4.0,96,0.00,,,0.00,0,weatherlink.com 1.10,2013-02-09 11:30:00,
2013-02-09 06:45:00,53.6,53.0,30.15,North,360,2.0,4.0,96,0.00,,,0.00,0,weatherlink.com 1.10,2013-02-09 11:45:00,
2013-02-09 07:00:00,53.4,52.0,30.16,North,5,4.0,4.0,96,0.00,,,0.00,0,weatherlink.com 1.10,2013-02-09 12:00:00,
2013-02-09 07:14:00,53.4,52.0,30.16,North,355,3.0,5.0,96,0.00,,,0.00,7,weatherlink.com 1.10,2013-02-09 12:14:00,
2013-02-09 07:29:00,53.5,52.0,30.17,North,355,2.0,5.0,96,0.00,,,0.00,14,weatherlink.com 1.10,2013-02-09 12:29:00,
2013-02-09 07:45:00,53.7,53.0,30.17,North,5,3.0,5.0,97,0.01,,,0.01,21,weatherlink.com 1.10,2013-02-09 12:45:00,
2013-02-09 07:59:00,54.2,53.0,30.18,North,5,3.0,6.0,97,0.01,,,0.01,26,weatherlink.com 1.10,2013-02-09 12:59:00,
2013-02-09 08:16:00,54.9,54.0,30.18,North,355,3.0,6.0,97,0.01,,,0.01,33,weatherlink.com 1.10,2013-02-09 13:16:00,
2013-02-09 08:32:00,56.0,55.0,30.18,North,5,5.0,8.0,97,0.01,,,0.01,258,weatherlink.com 1.10,2013-02-09 13:32:00,
2013-02-09 08:45:00,57.3,57.0,30.19,North,350,3.0,9.0,97,0.00,,,0.01,301,weatherlink.com 1.10,2013-02-09 13:45:00,
2013-02-09 09:01:00,59.2,57.0,30.19,North,360,3.0,7.0,93,0.00,,,0.01,359,weatherlink.com 1.10,2013-02-09 14:01:00,
2013-02-09 09:16:00,61.8,59.0,30.20,North,5,5.0,8.0,90,0.00,,,0.01,413,weatherlink.com 1.10,2013-02-09 14:16:00,
2013-02-09 09:30:00,64.6,60.0,30.20,NNE,32,2.0,13.0,85,0.00,,,0.01,480,weatherlink.com 1.10,2013-02-09 14:30:00,
2013-02-09 09:46:00,67.1,60.0,30.20,NNW,347,4.0,11.0,79,0.00,,,0.01,526,weatherlink.com 1.10,2013-02-09 14:46:00,
2013-02-09 10:01:00,68.9,61.0,30.21,North,355,6.0,11.0,76,0.00,,,0.01,571,weatherlink.com 1.10,2013-02-09 15:01:00,
2013-02-09 10:16:00,70.4,61.0,30.21,East,80,1.0,11.0,71,0.00,,,0.01,612,weatherlink.com 1.10,2013-02-09 15:16:00,
2013-02-09 10:32:00,71.6,61.0,30.21,NNW,346,9.0,12.0,69,0.00,,,0.01,652,weatherlink.com 1.10,2013-02-09 15:32:00,
2013-02-09 10:46:00,72.4,60.0,30.21,ENE,73,2.0,14.0,66,0.00,,,0.01,677,weatherlink.com 1.10,2013-02-09 15:46:00,
2013-02-09 11:01:00,72.8,61.0,30.21,ENE,64,2.0,12.0,66,0.00,,,0.01,701,weatherlink.com 1.10,2013-02-09 16:01:00,
2013-02-09 11:16:00,74.8,61.0,30.20,North,5,8.0,14.0,62,0.00,,,0.01,731,weatherlink.com 1.10,2013-02-09 16:16:00,
2013-02-09 11:32:00,75.0,61.0,30.21,NNW,331,8.0,11.0,62,0.00,,,0.01,745,weatherlink.com 1.10,2013-02-09 16:32:00,
2013-02-09 11:48:00,75.4,60.0,30.20,NNE,13,6.0,12.0,60,0.00,,,0.01,761,weatherlink.com 1.10,2013-02-09 16:48:00,
2013-02-09 12:02:00,76.2,60.0,30.20,North,11,3.0,11.0,57,0.00,,,0.01,777,weatherlink.com 1.10,2013-02-09 17:02:00,
2013-02-09 12:17:00,76.4,61.0,30.20,ESE,102,3.0,9.0,59,0.00,,,0.01,779,weatherlink.com 1.10,2013-02-09 17:17:00,
2013-02-09 12:33:00,75.8,58.0,30.20,North,355,2.0,13.0,55,0.00,,,0.01,779,weatherlink.com 1.10,2013-02-09 17:33:00,
2013-02-09 12:47:00,75.2,59.0,30.19,East,87,8.0,8.0,58,0.00,,,0.01,775,weatherlink.com 1.10,2013-02-09 17:47:00,
2013-02-09 13:02:00,75.7,59.0,30.19,NE,34,3.0,11.0,57,0.00,,,0.01,763,weatherlink.com 1.10,2013-02-09 18:02:00,
2013-02-09 13:17:00,76.0,60.0,30.18,North,5,4.0,6.0,57,0.00,,,0.01,756,weatherlink.com 1.10,2013-02-09 18:17:00,
2013-02-09 13:33:00,76.3,61.0,30.18,NE,40,3.0,10.0,60,0.00,,,0.01,745,weatherlink.com 1.10,2013-02-09 18:33:00,
2013-02-09 13:48:00,75.3,59.0,30.17,North,9,3.0,8.0,57,0.00,,,0.01,724,weatherlink.com 1.10,2013-02-09 18:48:00,
2013-02-09 14:03:00,75.4,58.0,30.18,NE,53,1.0,8.0,56,0.00,,,0.01,721,weatherlink.com 1.10,2013-02-09 19:03:00,
2013-02-09 14:18:00,74.6,59.0,30.18,NNW,329,5.0,9.0,59,0.00,,,0.01,675,weatherlink.com 1.10,2013-02-09 19:18:00,
2013-02-09 14:33:00,74.7,60.0,30.17,NNW,345,5.0,12.0,60,0.00,,,0.01,643,weatherlink.com 1.10,2013-02-09 19:33:00,
2013-02-09 14:48:00,73.9,59.0,30.17,NNW,342,6.0,10.0,61,0.00,,,0.01,633,weatherlink.com 1.10,2013-02-09 19:48:00,
2013-02-09 15:03:00,73.4,59.0,30.18,East,100,3.0,10.0,62,0.00,,,0.01,346,weatherlink.com 1.10,2013-02-09 20:03:00,
2013-02-09 15:20:00,73.7,60.0,30.18,NNE,25,7.0,11.0,63,0.00,,,0.01,237,weatherlink.com 1.10,2013-02-09 20:20:00,
2013-02-09 15:33:00,73.6,60.0,30.18,ENE,63,5.0,8.0,63,0.00,,,0.01,223,weatherlink.com 1.10,2013-02-09 20:33:00,
2013-02-09 15:48:00,73.3,60.0,30.17,NE,54,2.0,10.0,63,0.00,,,0.01,39,weatherlink.com 1.10,2013-02-09 20:48:00,
2013-02-09 16:05:00,72.4,59.0,30.18,NNE,32,2.0,8.0,64,0.00,,,0.01,44,weatherlink.com 1.10,2013-02-09 21:05:00,
2013-02-09 16:20:00,72.4,60.0,30.18,NNE,26,1.0,7.0,65,0.00,,,0.01,47,weatherlink.com 1.10,2013-02-09 21:20:00,
2013-02-09 16:35:00,72.2,60.0,30.18,North,5,2.0,6.0,66,0.00,,,0.01,130,weatherlink.com 1.10,2013-02-09 21:35:00,
2013-02-09 16:49:00,71.9,60.0,30.18,NNE,17,3.0,9.0,66,0.00,,,0.01,53,weatherlink.com 1.10,2013-02-09 21:49:00,
2013-02-09 17:04:00,71.5,60.0,30.19,North,355,3.0,7.0,67,0.00,,,0.01,30,weatherlink.com 1.10,2013-02-09 22:04:00,
2013-02-09 17:20:00,71.1,60.0,30.19,NNE,14,2.0,8.0,68,0.00,,,0.01,25,weatherlink.com 1.10,2013-02-09 22:20:00,
2013-02-09 17:34:00,70.1,60.0,30.19,ENE,65,0.0,4.0,70,0.00,,,0.01,19,weatherlink.com 1.10,2013-02-09 22:34:00,
2013-02-09 17:49:00,69.1,60.0,30.19,North,11,1.0,4.0,72,0.00,,,0.01,12,weatherlink.com 1.10,2013-02-09 22:49:00,
2013-02-09 18:04:00,68.1,60.0,30.19,North,349,2.0,4.0,74,0.00,,,0.01,5,weatherlink.com 1.10,2013-02-09 23:04:00,
2013-02-09 18:19:00,67.2,59.0,30.19,NNE,20,1.0,3.0,75,0.00,,,0.01,0,weatherlink.com 1.10,2013-02-09 23:19:00,
2013-02-09 18:35:00,66.2,58.0,30.19,ENE,77,0.0,2.0,76,0.00,,,0.01,0,weatherlink.com 1.10,2013-02-09 23:35:00,
2013-02-09 18:50:00,65.3,58.0,30.19,ENE,77,0.0,1.0,78,0.00,,,0.01,0,weatherlink.com 1.10,2013-02-09 23:50:00,
2013-02-09 19:05:00,64.1,58.0,30.20,ENE,77,0.0,1.0,80,0.00,,,0.01,0,weatherlink.com 1.10,2013-02-10 00:05:00,
2013-02-09 19:21:00,63.0,57.0,30.20,ENE,77,0.0,1.0,82,0.00,,,0.01,0,weatherlink.com 1.10,2013-02-10 00:21:00,
2013-02-09 19:35:00,62.0,57.0,30.19,ENE,77,0.0,0.0,84,0.00,,,0.01,0,weatherlink.com 1.10,2013-02-10 00:35:00,
2013-02-09 19:50:00,61.1,57.0,30.20,ENE,77,0.0,1.0,85,0.00,,,0.01,0,weatherlink.com 1.10,2013-02-10 00:50:00,
2013-02-09 20:05:00,60.7,57.0,30.20,ENE,57,0.0,2.0,88,0.00,,,0.01,0,weatherlink.com 1.10,2013-02-10 01:05:00,
2013-02-09 20:20:00,60.9,58.0,30.20,ENE,60,0.0,2.0,89,0.00,,,0.01,0,weatherlink.com 1.10,2013-02-10 01:20:00,
2013-02-09 20:36:00,62.2,58.0,30.20,ESE,103,0.0,3.0,87,0.00,,,0.01,0,weatherlink.com 1.10,2013-02-10 01:36:00,
2013-02-09 20:50:00,63.4,59.0,30.21,East,82,2.0,5.0,85,0.00,,,0.01,0,weatherlink.com 1.10,2013-02-10 01:50:00,
2013-02-09 21:06:00,64.5,59.0,30.21,East,91,0.0,3.0,83,0.00,,,0.01,0,weatherlink.com 1.10,2013-02-10 02:06:00,
2013-02-09 21:21:00,65.0,59.0,30.21,East,99,1.0,5.0,81,0.00,,,0.01,0,weatherlink.com 1.10,2013-02-10 02:21:00,
2013-02-09 21:37:00,65.2,59.0,30.21,NNE,24,1.0,3.0,80,0.00,,,0.01,0,weatherlink.com 1.10,2013-02-10 02:37:00,
2013-02-09 21:51:00,65.9,59.0,30.22,ENE,76,4.0,8.0,79,0.00,,,0.01,0,weatherlink.com 1.10,2013-02-10 02:51:00,
2013-02-09 22:06:00,65.9,59.0,30.23,East,94,1.0,5.0,79,0.00,,,0.01,0,weatherlink.com 1.10,2013-02-10 03:06:00,
2013-02-09 22:21:00,66.0,59.0,30.23,ENE,57,1.0,7.0,78,0.00,,,0.01,0,weatherlink.com 1.10,2013-02-10 03:21:00,
2013-02-09 22:36:00,65.9,59.0,30.23,East,80,0.0,8.0,78,0.00,,,0.01,0,weatherlink.com 1.10,2013-02-10 03:36:00,
2013-02-09 22:52:00,65.7,59.0,30.23,ENE,76,2.0,4.0,78,0.00,,,0.01,0,weatherlink.com 1.10,2013-02-10 03:52:00,
2013-02-09 23:07:00,65.6,59.0,30.23,NE,55,0.0,9.0,78,0.00,,,0.01,0,weatherlink.com 1.10,2013-02-10 04:07:00,
2013-02-09 23:22:00,65.6,59.0,30.23,ESE,123,2.0,7.0,78,0.00,,,0.01,0,weatherlink.com 1.10,2013-02-10 04:22:00,
2013-02-09 23:38:00,65.5,58.0,30.23,East,83,1.0,6.0,78,0.00,,,0.01,0,weatherlink.com 1.10,2013-02-10 04:38:00,
2013-02-09 23:52:00,65.2,58.0,30.23,ENE,64,3.0,8.0,78,0.00,,,0.01,0,weatherlink.com 1.10,2013-02-10 04:52:00,